CZ-2D R/B (43486 NORAD) Tracking and Keplerian Element Data

This shows tracking and keplerian element data for the satellite.

Feedback or suggestion? Click here.




ElementValue
Catalog43486
NameCZ-2D R/B
Epoch Orbit429
Epoch Day182.19563142
Epoch Year2018
RAAN256.7962
Inclination97.9281
Eccentricity0.0014481
Argument of Perigee311.0356
Mean Anonmoly48.9603
Mean Motion14.78043368
Decay Rate1.68E-06
L11 43486U 18048C 18182.19563142 .00000168 00000-0 30393-4 0 9994
L22 43486 97.9281 256.7962 0014481 311.0356 48.9603 14.78043368 4296



Live tracking and technical data element details for CZ-2D R/B (NORAD 43486). CZ-2D R/B can be tracked NOW for your location showing map with azimuth and elevation plus other details from your city location.







IsCatalogInMostPopularTable: catalog: 43486, numindb: 605
Update: records affected: 1



GetName: 43486 CZ-2D R/B

Hit Count: updated at: Mon, 17 Jun 2024 23:23:11 GMT